sat.trackr.live / text

‹ back to catalog

STARLINK-35012

NORAD 65384 · 2025-191F

PAYLOAD ACTIVE UNKNOWN

§ Identity

Operator
Country
US
Launch date
2025-08-30
Launch site
AFWTR
Launch vehicle
Mass (kg)
RCS (m²)

Purposes: comms

External: N2YO · Heavens-Above · Gunter

§ Orbital elements

Epoch: 2026-09-19T09:20:04.286400Z

Period
93.91 min
Inclination
97.2850°
Eccentricity
0.0002738
Mean motion
15.33451272 rev/d
Perigee alt
463.7 km
Apogee alt
467.4 km
Semi-major
6,843.7 km
B*
3.7762e-4
RAAN
128.5067°
Arg perigee
87.2303°
Mean anomaly
272.9253°
Rev number
5,947

§ Raw data

STARLINK-350121 65384U 25191F   26262.38893850  .00012139  00000+0  37762-3 0  99992 65384  97.2850 128.5067 0002738  87.2303 272.9253 15.33451272 59479

JSON: /api/v1/satellites/65384 · /tle

For live sub-satellite position, see the globe view (requires WebGL).

§ Visibility from observer

Set your observer location to see the next 7 days of passes ≥ 10°. The values pass through the URL so the page stays shareable.

No JS? Fill the form by hand. The geolocation button needs JavaScript.